CZ-6A DEB, 54892

Orbit data source: Space-Track

CZ-6A DEB, 54892 is space debris in SSO originally from a launch on Fri, 11 Nov 2022 UTC launched from the Taiyaun Space Center, China (TSC). Debris objects in space refer to the collection of defunct objects orbiting the Earth. Examples of debris include non-operational satellites, rocket bodies, and fragments generated from explosions, collisions, or faulty payload assembly.

Loading next visibility...
Identifier
54892, 2022-151QD
Orbit
SSO
Country
Flag of CNCN / PRC
Related business
Manufacturer
SAST
Mission
Spacecraft
Bus & Motor
Unknown
Mass
Unknown
Launch date (UTC)
2022-11-11 (4 years ago)
Launch vehicle
Unknown
Launch site
Taiyaun Space Center, China (TSC)
Object type
Payload
Rocket body
Debris
Shape & HBR
Unknown shape, 0.1 m
Radar Cross Section
Medium (>0.1 m² and <1 m²)

Expand to show TLE details & history
Last TLE update: 14 hours ago

TLE from 14 hours ago
0 CZ-6A DEB
1 54892U 22151QD  26265.16799049  .00005903  00000-0  91549-3 0  9993
2 54892  98.6164 334.8148 0064485 345.8006  14.1385 14.72159551201744
Epoch: 2026-09-22T04:01Z
TLE epoch observation values (Epoch: 2026-09-22T04:01:54.378Z)
Latitude
0.00001°
Longitude
-86.69912°
Altitude
613.205 km
Speed
7.576 km/s
True Right ascension
22h 19m 15s
True Declination
0° 00' 00"
Sunlit
Object was in full shadow at epoch
Visualization orbit readout
Latitude
Unknown
Longitude
Unknown
Altitude
Unknown
Speed
Unknown
Apparent Right ascension
Unknown
Apparent Declination
Unknown
Sunlit
N/A
Visualization observer readout
Local Sidereal Time
11:00:46
Azimuth
Unknown
Elevation
Unknown
Doppler factor
Unknown
Orbital elements
Apogee altitude
696.596 km
Perigee altitude
605.938 km
Semi-major axis
7,029.404 km
Eccentricity
0.00645
Inclination
98.6164°
RAAN
334.8148°
Arg. of periapsis
345.8006°
True anomaly
14.32042°
Mean anomaly
14.1385°
Eccentric anomaly
14.22932°
Mean motion
3.68269 °/min
Orbital period
97.75 mins
BSTAR
0.00091549
Loading maneuver chart data...
Computing Atmospheric mass density...

Documentation

Showing up to 5 results
|